Погода в Сонково

Россия / Тверская область     57°46′49″N   37°09′46″E
темп.,
°C
ветер,
м/с
пор.,
м/с
влажн.,
%
обл.,
%
осадки,
мм/ч
давл.,
гПа
погр.,
м
17 октября, вс
вс1700:00+3юз512885 0.0 1009378
03:00+3юз6159186 0.0 1007550
06:00+4юз6138620 0.0 1007731
09:00+5юз71386100 0.0 10071074
12:00+7юз7118092 0.1 1008919
15:00+7юз71274100 0.2 10071257
18:00+6юз6127790 0.1 1007704
21:00+5зюз5118677 0.3 1008459
18 октября, пн
пн1800:00+4юз41090100 0.1 1008349
03:00+4юз498292 0.1 1007364
06:00+2юз499224 0.0 1007273
09:00+3зюз41088100 0.0 1007492
12:00+6зюз59635 0.0 10061165
15:00+5зюз7107685 0.6 10061107
18:00+3з51195100 0.3 1007977
21:00+3з51094100 0.6 1008696
19 октября, вт
вт1900:00+2зсз598898 0.1 1009669
03:00+2сз5996100 0.3 1010612
06:00+1сз4109499 0.1 1012627
09:00+2сз477691 0.1 1013934
12:00+3сз5767100 0.0 10151161
15:00+3зсз4769100 0.1 1015991
18:00+2зсз598693 0.1 1016504
21:00+1сз598144 0.1 1017761
20 октября, ср
ср2000:00−2сз598937 0.0 1019467
03:00−3сз48855 0.0 1021402
06:00−3зсз3884100 0.0 1021395
09:00−1зсз357383 0.0 1021442
12:00+1зюз33575 0.0 1021800
15:00+2юз4552100 0.0 1019926
18:000ю4106389 0.0 1017405
21:000ю61367100 0.0 1014524
21 октября, чт
чт2100:000ю71692100 0.7 1010648
03:00+1ю81894100 2.9 1006708
06:00+3ююз81792100 1.9 1002739
09:00+5ююз81895100 2.9 999609
12:00+6ююз81893100 1.7 997678
15:00+7ююз81991100 3.0 995709
18:00+8ююз91989100 1.0 993782
21:00+9юз91888100 1.4 9931104